Torna al catalogo

STARLINK-4293

AttivoComunicazioniVLEO
NORAD 52989·PAYLOAD·🇺🇸 United States

Lanciato Jul 7, 2022 da Cape Canaveral Space Force Station

Loading…

Prossimi Passaggi (prossime 24 ore)

TLE

AggiornatoSource: CelesTrak SupGP

Epoca: Sep 14, 2026, 21:59 UTC

1 52989C 22076D   26257.91645833  .00453110  00000+0  10522-2 0  2573
2 52989  53.2122 287.2954 0001838  69.1376 129.6344 15.96151340    14

Traccia STARLINK-4293 in tempo reale con AllMySat

Download on the App Store